Regional Weather Roundup
Issued by NWS

Home | Current Version | Previous Version | Text Only | Print | Product List | Glossary Off
Versions: 1 2 3 4 5 6 7 8 9 10 11 12 13 14 15 16 17 18 19 20 21 22 23 24 25 26 27 28 29 30 31 32 33 34 35 36 37 38 39 40 41 42 43 44 45 46 47 48 49 50

000
ASUS45 KABQ 250101
RWRNM
NEW MEXICO REGIONAL WEATHER ROUNDUP
NATIONAL WEATHER SERVICE ALBUQUERQUE NM
600 PM MST FRI FEB 24 2017

NOTE: "FAIR" MEANS FEW OR NO CLOUDS BELOW 12,000 FEET AGL WITH NO
       SIGNIFICANT WEATHER OR OBSTRUCTIONS TO VISION.

      THIS PRODUCT IS RELEASED AS TWO VERSIONS.  ONE VERSION NEAR
      THE TOP OF THE HOUR CONTAINING PRELIMINARY DATA FROM ALBUQUERQUE
      AND OTHER STATIONS.  A FINAL VERSION WITH ADDITIONAL DATA IS
      ISSUED ABOUT 10 MINUTES AFTER THE HOUR.

NMZ501-503-504-510>518-250200-
NORTHWEST PLATEAU/NORTHCENTRAL MOUNTAINS

CITY           SKY/WX    TMP DP  RH WIND       PRES   REMARKS
FARMINGTON     FAIR      35  -1  21 W15       29.98R WCI  25
LOS ALAMOS     FAIR      32  -5  20 SW12G17   29.94R WCI  23
SANTA FE       FAIR      36 -10  13 W14G23    29.93R WCI  27
TAOS           FAIR      28  -2  26 NW12      29.93R WCI  18
ANGEL FIRE     FAIR      22   1  40 W12G18    29.90R WCI  11

$$
NMZ402-403-502-505>509-250200-
WESTCENTRAL MOUNTAINS/SOUTHWEST MOUNTAINS

CITY           SKY/WX    TMP DP  RH WIND       PRES   REMARKS
GALLUP         FAIR      36   1  22 W16       30.00R WCI  26
GRANTS         FAIR      35  -3  20 W16G25    30.01R WCI  25
SILVER CITY    FAIR      45   8  22 W16G24    30.04R

$$
NMZ407-409-411-412-250200-
SOUTHERN DESERTS

CITY           SKY/WX    TMP DP  RH WIND       PRES   REMARKS
DEMING         FAIR      53  11  18 W16       30.03R
LAS CRUCES     FAIR      52   6  15 W20G30    30.01R
HOLLOMAN AFB   FAIR      56   4  12 SW12      29.97R
ALAMOGORDO     FAIR      55   1  11 SW15      29.96R
T OR C         FAIR      54   6  14 W15       29.93R

$$
NMZ519>523-250200-
CENTRAL VALLEYS/CENTRAL HIGHLANDS

CITY           SKY/WX    TMP DP  RH WIND       PRES   REMARKS
ALBUQUERQUE    FAIR      44  -2  14 W14G24    29.96R
DOUBLE EAGLE   CLEAR     39   0  19 W15G23    29.96R WCI  31
MORIARTY ARPT  FAIR      40  -2  16 W18G25    29.96R WCI  31
CLINES CORNERS FAIR      33  -2  22 W14       29.94R WCI  23
BELEN          FAIR      44  -3  14 W15       29.98R
SOCORRO        FAIR      48  -1  13 N13G18    29.94R

$$
NMZ524>526-539-540-250200-
SOUTHCENTRAL MOUNTAINS

CITY           SKY/WX    TMP DP  RH WIND       PRES   REMARKS
RUIDOSO        NOT AVBL

$$
NMZ527>531-250200-
NORTHEAST HIGHLANDS/NORTHEAST PLAINS

CITY           SKY/WX    TMP DP  RH WIND       PRES   REMARKS
LAS VEGAS      FAIR      32 -10  16 W18       29.90R WCI  20
RATON          CLOUDY    33  -1  23 NW7       29.90R WCI  27
CLAYTON        FAIR      30  14  51 NE10      29.97R WCI  21

$$
NMZ532>537-250200-
EASTCENTRAL PLAINS

CITY           SKY/WX    TMP DP  RH WIND       PRES   REMARKS
TUCUMCARI      FAIR      42  13  30 NE14      29.92R
CANNON AFB     NOT AVBL
CLOVIS AIRPORT FAIR      45   1  16 NW9       29.93R

$$
NMZ028-029-538-250200-
SOUTHEAST PLAINS

CITY           SKY/WX    TMP DP  RH WIND       PRES   REMARKS
ROSWELL        FAIR      58   1  10 W12         N/A
ARTESIA        FAIR      57   7  13 SW12      29.91R
CARLSBAD       FAIR      60  -4   7 W21       29.90R
HOBBS          CLEAR     55   1  11 NW8       29.92R


$$



USA.gov is the U.S. government's official web portal to all federal, state and local government web resources and services.